Погода в Тойси

Россия / Чувашская Республика     55°04′34″N   47°46′08″E
темп.,
°C
ветер,
м/с
пор.,
м/с
влажн.,
%
обл.,
%
осадки,
мм/ч
давл.,
гПа
погр.,
м
20 мая, пт
пт2000:00+4з35903 0.0 101090
03:00+2з34913 0.0 101067
06:00+5зсз46825 0.0 1010282
09:00+8ссз3466100 0.1 10111046
12:00+9ссз6759100 1.3 10101606
15:00+9ссз8854100 1.8 10101929
18:00+6с697178 0.1 10111327
21:00+4сз4108324 0.1 1011301
21 мая, сб
сб2100:00+3ссз612885 0.0 1010364
03:00+1ссз5119410 0.0 1010324
06:00+3ссз698648 0.0 1010507
09:00+6ссз7969100 0.1 10101318
12:00+8ссз795996 0.6 10091675
15:00+8ссз685694 1.1 10081761
18:00+8ссз456399 0.1 10081146
21:00+5сз347789 0.3 100791
22 мая, вс
вс2200:00+3ссз33867 0.0 100659
03:00+1сз35905 0.0 1006104
06:00+3сз46825 0.0 1004320
09:00+7сз575892 0.1 10031665
12:00+8ссз5657100 0.4 10021554
15:00+8сз5659100 0.8 10011533
18:00+7ссз566485 0.3 10011229
21:00+3зсз357810 0.3 1001111
23 мая, пн
пн2300:00+1зсз37855 0.0 1000154
03:000зсз489093 0.0 1000183
06:00+3зсз5885100 0.0 1000522
09:00+6зсз6868100 0.0 9991199
12:00+6зсз6875100 0.4 10001106
15:00+7зсз6867100 0.9 10011362
18:00+7зсз477797 0.6 1001953
21:00+4з4990100 0.9 1002293
24 мая, вт
вт2400:00+4з4693100 0.1 1002567
03:00+4з5997100 1.4 1003740
06:00+2з4897100 0.5 1004503
09:00+2зюз3698100 1.0 1005332
12:00+3з4799100 0.8 1007469
15:00+3зсз349396 1.1 1008493
18:00+6сз457397 0.1 10091034
21:00+2сз36935 0.2 1010120